Change the Weather History Date:

Friday, November 9, 2012

  Actual Average (KCLE) Record (KCLE)
Temperature  
Mean Temperature 42 °F 46 °F  
Max Temperature 54 °F 54 °F 74 °F (1975)
Min Temperature 30 °F 39 °F 22 °F (1976)
Degree Days  
Heating Degree Days 23 19  
Month to date heating degree days 156  
Since 1 July heating degree days 616  
Cooling Degree Days 0 0  
Month to date cooling degree days 0  
Year to date cooling degree days 816  
Moisture  
Dew Point 34 °F    
Average Humidity 72    
Maximum Humidity 92    
Minimum Humidity 53    
Precipitation  
Precipitation 0.00 in 0.11 in 1.11 in (1996)
Month to date precipitation 1.05  
Year to date precipitation 33.47  
Snow  
Snow 0.00 in 0.10 in - ()
Month to date snowfall 0.7  
Since 1 July snowfall 0.9  
Since 1 September snowfall 0.9  
Snow Depth -    
Sea Level Pressure  
Sea Level Pressure 30.19 in    
Wind  
Wind Speed 5 mph (SSW)    
Max Wind Speed 10 mph    
Max Gust Speed -    
Visibility 7 miles    
Events Rain , Thunderstorm    
T = Trace of Precipitation, MM = Missing Value Source: NWS Daily Summary

Daily Weather History Graph

Daily Weather History Graph

Search for Another Location

Airport or City:

Trip Planner

Search our weather history database for the weather conditions in past years. The results will help you decide how hot, cold, wet, or windy it might be!

Date:

Astronomy

Nov. 09, 2012 Rise Set
Actual Time 7:10 AM EST 5:14 PM EST
Civil Twilight 6:41 AM EST 5:43 PM EST
Nautical Twilight 6:07 AM EST 6:16 PM EST
Astronomical Twilight 5:35 AM EST 6:49 PM EST
Moon 2:04 AM EST (11/9) 2:29 PM EST (11/9)
Length of Visible Light 11h 02m
Length of Day
10h 03m
Waning Crescent, 23% of the Moon is Illuminated
Nov 9
Waning Crescent
Nov 13
New
Nov 20
First Quarter
Nov 28
Full
Dec 6
Last Quarter

Hourly Weather History & Observations

Time (EST) Temp. Windchill Dew Point Humidity Pressure Visibility Wind Dir Wind Speed Gust Speed Precip Events Conditions
12:53 AM 33.1 °F - 28.0 °F 82% 30.19 in 8.0 mi Calm Calm - N/A   Clear
1:53 AM 33.1 °F 30.0 °F 28.0 °F 82% 30.19 in 7.0 mi SSW 3.5 mph - N/A   Clear
2:53 AM 32.0 °F 28.7 °F 28.0 °F 85% 30.20 in 6.0 mi SSW 3.5 mph - N/A   Clear
3:53 AM 30.9 °F 25.2 °F 28.0 °F 89% 30.20 in 6.0 mi SSW 5.8 mph - N/A   Clear
4:53 AM 30.9 °F 24.3 °F 27.0 °F 85% 30.22 in 5.0 mi SW 6.9 mph - N/A   Clear
5:53 AM 30.9 °F 26.2 °F 28.9 °F 92% 30.23 in 4.0 mi SW 4.6 mph - N/A   Overcast
6:53 AM 34.0 °F 28.0 °F 30.9 °F 89% 30.23 in 5.0 mi SW 6.9 mph - N/A   Overcast
7:53 AM 35.1 °F 32.2 °F 32.0 °F 89% 30.25 in 3.0 mi SW 3.5 mph - N/A   Overcast
8:28 AM 35.6 °F 32.8 °F 32.0 °F 87% 30.23 in 4.0 mi SSW 3.5 mph - N/A   Scattered Clouds
8:53 AM 37.0 °F 33.3 °F 33.1 °F 86% 30.26 in 4.0 mi SW 4.6 mph - N/A   Clear
9:53 AM 39.9 °F 37.8 °F 34.0 °F 79% 30.26 in 5.0 mi SW 3.5 mph - N/A   Haze
10:29 AM 42.8 °F 39.3 °F 35.6 °F 76% 30.23 in 5.0 mi SW 5.8 mph - N/A   Haze
10:53 AM 44.1 °F 40.8 °F 36.0 °F 73% 30.25 in 6.0 mi SSW 5.8 mph - N/A   Haze
11:53 AM 46.9 °F - 36.0 °F 66% 30.23 in 7.0 mi WSW 8.1 mph - N/A   Mostly Cloudy
12:07 PM 48.2 °F - 35.6 °F 62% 30.20 in 8.0 mi SW 8.1 mph - N/A   Scattered Clouds
12:53 PM 50.0 °F - 36.0 °F 59% 30.20 in 8.0 mi SSW 5.8 mph - N/A   Clear
1:53 PM 52.0 °F - 37.0 °F 57% 30.19 in 9.0 mi SSW 10.4 mph - N/A   Clear
2:53 PM 53.1 °F - 37.0 °F 55% 30.17 in 9.0 mi WSW 8.1 mph - N/A   Clear
3:53 PM 54.0 °F - 37.0 °F 53% 30.17 in 10.0 mi SW 10.4 mph - N/A   Clear
4:53 PM 51.1 °F - 37.0 °F 59% 30.16 in 10.0 mi SSW 4.6 mph - N/A   Clear
5:53 PM 48.0 °F - 37.0 °F 66% 30.16 in 10.0 mi SSE 4.6 mph - N/A   Clear
6:53 PM 48.0 °F - 36.0 °F 63% 30.17 in 10.0 mi SSW 5.8 mph - N/A   Partly Cloudy
7:53 PM 48.9 °F - 37.0 °F 64% 30.14 in 10.0 mi South 8.1 mph - N/A   Overcast
8:53 PM 50.0 °F - 36.0 °F 59% 30.13 in 10.0 mi South 9.2 mph - N/A   Overcast
9:53 PM 48.9 °F - 37.0 °F 64% 30.14 in 10.0 mi South 6.9 mph - N/A   Overcast
10:53 PM 50.0 °F - 37.0 °F 61% 30.13 in 10.0 mi South 8.1 mph - N/A   Overcast
11:45 PM 48.2 °F - 39.2 °F 71% 30.15 in 10.0 mi Calm Calm - 0.00 in Rain , Thunderstorm Light Rain
11:53 PM 48.0 °F - 41.0 °F 77% 30.15 in 9.0 mi East 5.8 mph - 0.00 in Rain , Thunderstorm Light Rain